SCP
0 0 0 0 0 0 0 0 0 0 0 0 0 -0 0 0 0 0 0 0 0 0 0 0 0 0 0 0 0 0 0 0 0 0 0 0 0 0 0 0 0 0 0 0
0 0 0 0 0 0 0 0 0 0 0 0 0 0 0 0 0 0 0 0 0 0 0 0 0 0 0 0 0 0 0 0 0 0 0 0 0 0 0 0 0 0 0 0
0 0 0 0 0 0 0 0 0 0 0 0 0 0 0 0 0 0 0 0 0 0 0 0 0 0 0 0 0 0 0 0 0 0 0 0 0 0 0 0 0 0 0 0
0 0 0 0 0 0 0 0 0 0 0 0 0 0 0 0 0 0 0 0 0 0 0 0 0 0 0 0 0 0 0 0 0 0 0 0 0 0 0 0 0 0 0 0
0 0 0 0 0 0 0 0 0 0 0 0 0 0 0 0 0 0 0 0 0 0 0 0 0 0 0 0 0 0 0 0 0 0 0 0 0 0 -0 0 0 0 0 0
0 0 0 0 0 0 0 0 0 0 0 0 0 0 0 0 0 0 0 0 0 0 0 0 -0 0 0 -0 0 0 0 0 0 0 0 0 0 0 0 0 0 0 0 0
0 0 0 0 0 0 0 0 0 0 0 0 0 0 0 0 0 0 0 0 0 0 0 0 0 0 0 0 0 0 0 0 0 0 0 0 0 0 -0 -0 0 0 0 0
0 0 0 0 0 0 0 0 0 0 0 0 0 0 0 0 0 0 0 0 0 0 0 0 0 0 0 0 0 0 0 0 0 0 0 0 0 0 0 -0 0 0 0 0
0 0 0 0 0 0 0 0 0 0 0 0 0 0 0 0 0 0 0 0 0 0 0 0 0 0 0 0 0 0 0 0 0 0 0 0 0 0 -0 0 0 0 0 -0
0 0 0 0 0 0 0 0 0 0 0 0 0 0 0 0 0 0 0 0 0 0 0 0 0 0 0 0 0 0 0 0 0 0 0 0 0 0 0 0 0 0 0 0
0 0 0 0 0 0 0 0 0 0 0 0 0 0 0 0 0 0 0 0 0 0 0 0 0 0 0 0 0 0 0 0 0 0 0 0 0 0 0 0 0 0 0 0
0 0 0 0 0 0 0 0 0 0 0 0 0 0 0 0 0 0 0 0 1 0 0 0 0 0 0 0 0 0 0 0 0 0 0 0 0 0 0 0 0 0 0 0
0 0 0 0 0 0 0 0 0 0 0 -0 0 0 0 0 0 0 0 0 0 0 0 0 0 0 0 0 0 0 0 0 0 0 0 0 0 0 0 0 0 0 -0 -0
0 0 0 0 0 0 0 0 0 0 0 0 0 0 0 0 0 0 0 0 0 0 0 0 0 0 0 0 0 0 0 0 0 0 0 0 0 0 0 -0 -0 0 0 0
0 0 0 0 0 0 0 0 0 0 0 0 -0 0 0 0 0 0 0 0 0 0 0 0 0 0 0 0 0 0 0 0 0 0 0 0 0 0 -0 -0 -0 0 -0 0
0 0 0 0 0 0 0 0 0 0 0 0 0 0 0 0 0 0 0 0 0 0 0 0 0 0 0 0 0 0 0 0 0 0 0 0 -0 -0 0 -0 -0 0 0 0
0 0 0 0 0 0 0 0 0 0 0 0 0 0 0 0 0 0 0 0 0 0 0 0 0 0 0 0 0 0 0 0 0 -0 -0 0 0 0 0 -0 0 0 0 0
0 0 0 0 0 0 0 0 0 0 0 0 0 0 0 0 0 0 0 0 0 0 0 0 0 0 0 0 0 0 0 0 0 0 0 0 0 0 0 -0 0 -0 0 -0
0 0 0 0 0 0 0 0 0 0 0 0 0 0 0 0 0 0 0 0 0 0 0 0 0 0 0 0 0 0 0 0 0 0 -0 -0 -0 -0 -0 -0 0 0 0 0
0 0 0 0 0 0 0 0 0 0 0 0 0 0 0 0 0 0 0 0 0 0 0 0 0 0 0 0 0 0 0 0 0 -0 0 -0 -0 -0 0 0 0 0 0 0
0 0 0 0 0 0 0 0 0 0 0 0 -0 0 0 0 0 0 0 0 0 0 0 0 0 0 0 0 0 0 0 0 0 0 0 0 -0 -0 -0 0 0 0 0 0
0 0 0 0 0 0 0 0 0 0 0 0 0 0 0 0 0 0 0 0 0 0 0 0 0 0 0 0 0 0 0 0 0 0 0 0 -0 -0 -0 0 0 0 0 0
0 0 0 0 0 0 0 0 0 0 0 0 0 0 0 0 0 0 0 0 0 0 0 0 0 0 0 0 0 0 0 0 0 0 0 0 0 -0 -0 -0 0 0 0 0
0 0 0 0 0 0 0 0 0 0 0 0 0 0 0 0 0 0 0 0 0 0 0 0 0 0 0 0 0 0 0 0 0 0 0 0 0 0 0 -0 -0 0 0 0
0 0 0 0 0 0 0 0 0 0 0 0 0 0 0 0 0 0 0 0 0 0 0 0 0 0 0 0 0 0 0 0 0 0 0 0 0 -0 0 0 0 0 0 0
0 0 0 0 0 0 0 0 0 0 0 0 0 0 0 0 0 0 0 0 0 0 0 0 0 0 0 0 0 0 0 0 0 0 0 0 0 -0 0 0 0 0 0 0
0 0 0 0 0 0 0 0 0 0 0 0 0 0 0 0 0 0 0 0 0 0 0 0 0 0 0 0 0 0 0 0 0 0 0 0 0 0 0 0 0 0 0 0
Wind_Speed_500mb
30 39 36 29 24 16 16 9 6 13 36 9 5 5 8 13 23 55 15 6 7 5 11 8 5 3 2 3 2 7 5 9 8 8 12 7 11 8 10 10 3 7 8 6
27 31 33 26 25 18 13 8 13 25 30 5 5 10 11 25 19 13 8 8 2 7 7 1 8 7 13 9 9 7 2 6 7 14 13 14 13 7 11 11 7 2 10 9
31 24 33 28 24 20 12 7 5 13 21 30 7 1 12 8 25 15 15 12 12 8 11 4 7 6 12 12 10 11 14 6 13 11 12 8 12 18 12 13 9 6 4 27
23 34 27 33 28 22 15 9 9 9 6 11 13 9 8 10 11 8 11 7 8 3 7 2 8 8 6 11 8 8 10 6 6 6 19 19 20 24 21 15 14 10 19 19
18 25 29 30 35 27 24 5 7 21 21 22 10 14 14 18 14 9 12 9 16 7 7 6 13 14 5 7 10 7 7 1 5 10 16 26 20 33 35 32 26 23 26 13
16 21 27 30 37 34 19 5 19 10 16 11 3 4 14 13 4 14 22 14 6 12 13 27 39 20 18 19 11 5 7 7 6 4 18 15 13 4 17 12 10 29 13 15
17 18 24 29 35 43 32 10 9 5 8 4 6 14 14 14 11 12 18 18 5 13 2 53 47 44 36 35 17 11 7 7 5 6 6 6 10 9 28 27 11 17 21 25
19 16 23 27 33 44 40 37 4 9 7 17 14 32 13 34 24 12 9 20 16 27 14 12 12 12 13 9 6 11 10 8 6 8 6 6 15 9 14 12 3 11 23 33
19 17 19 32 24 38 44 46 35 9 10 5 15 11 24 8 10 10 13 31 19 15 5 6 9 8 8 4 4 7 11 11 9 5 9 11 11 5 46 26 1 20 45 44
24 18 16 25 29 20 45 37 28 19 11 15 20 9 10 19 13 5 8 15 9 10 5 5 5 5 15 9 14 8 6 6 8 5 6 1 5 27 21 8 11 38 47 51
29 22 18 17 27 27 39 45 27 22 11 42 26 20 26 29 13 6 21 10 9 8 6 5 5 5 6 8 6 10 9 9 3 5 8 7 4 5 11 17 46 42 39 39
31 27 20 15 27 29 25 38 41 27 27 29 29 39 36 49 35 29 12 7 10 5 2 2 6 4 3 10 5 8 4 10 11 6 7 6 4 17 46 52 53 42 41 39
33 31 24 19 23 35 35 32 32 21 27 47 44 41 23 26 20 21 10 5 16 6 17 4 4 9 7 5 4 9 6 7 9 7 4 16 47 48 46 38 39 37 35 38
33 32 28 23 18 35 40 30 35 20 10 10 15 13 25 18 20 32 28 33 28 32 25 6 5 6 5 6 7 8 6 11 13 8 10 34 37 45 43 41 39 39 33 37
34 33 30 23 18 39 34 34 40 29 10 7 25 43 30 17 19 24 23 23 23 18 10 1 3 3 8 6 7 5 4 14 9 9 45 14 49 47 42 45 43 37 39 43
35 32 29 25 18 37 28 12 48 31 18 10 7 16 39 24 21 28 24 22 16 10 9 3 7 5 8 7 4 7 2 30 28 19 68 37 53 47 43 45 44 37 36 50
37 31 25 22 24 34 43 16 25 45 37 8 12 15 15 29 29 21 21 19 14 12 6 3 8 5 7 6 5 10 12 20 25 60 55 54 62 61 49 45 43 36 40 46
35 31 28 18 30 33 49 28 40 47 40 10 5 9 11 29 19 10 21 17 17 11 4 4 8 7 7 5 11 36 37 46 65 69 36 61 60 54 50 48 48 44 41 50
36 30 23 12 19 26 55 30 22 42 19 7 8 5 7 29 20 19 22 16 3 4 4 2 8 3 4 22 42 60 63 44 58 40 56 66 60 55 55 51 46 43 46 43
36 31 13 10 15 29 40 21 19 18 15 13 10 9 7 16 27 12 11 7 6 4 6 9 6 4 7 62 66 66 49 54 61 70 62 61 60 59 54 51 41 39 41 42
42 20 11 11 29 38 14 13 16 19 8 19 20 30 7 7 9 9 8 7 3 6 9 9 2 3 12 52 61 57 44 54 45 37 55 46 47 53 54 46 42 39 37 36
34 14 17 13 18 13 8 11 11 11 14 19 30 33 29 17 24 8 4 7 4 9 9 8 5 8 40 64 64 52 54 50 42 40 44 38 38 42 44 41 47 41 37 34
33 6 5 5 8 8 11 18 9 12 21 30 27 12 23 14 13 5 6 7 7 13 6 8 9 18 61 73 61 61 59 52 44 44 40 36 40 41 40 41 42 38 33 32
9 9 6 8 9 12 12 7 11 27 39 41 46 22 14 14 8 8 8 4 8 5 9 11 7 58 68 70 67 68 62 53 51 50 48 46 42 40 38 37 37 36 38 31
10 10 10 18 23 28 27 42 38 49 41 28 26 16 7 8 8 4 8 6 8 11 12 8 48 72 80 78 74 67 65 64 59 56 52 46 42 40 39 36 34 35 36 37
10 15 10 26 11 24 29 44 49 58 50 35 19 9 3 10 4 9 11 18 11 8 8 37 72 79 81 80 73 71 72 66 60 52 44 38 36 34 34 36 38 36 37 37
11 16 34 35 30 31 50 35 62 60 56 7 9 14 10 10 5 8 11 11 9 29 46 71 85 90 85 78 75 73 66 57 47 40 35 33 32 32 31 34 37 38 36 32
Wind_Direction_500mb
242 232 238 249 253 262 278 291 297 171 163 149 179 197 224 298 299 305 266 259 261 234 289 181 147 77 3 66 118 85 332 129 69 40 336 92 98 117 110 109 310 69 107 43
247 234 229 238 241 238 248 265 271 193 219 178 241 276 285 284 284 275 318 305 223 271 261 152 130 111 10 73 77 135 47 2 69 346 354 6 52 14 102 110 88 81 116 150
238 241 223 223 225 227 233 274 307 246 217 245 203 88 269 259 297 269 255 263 302 343 347 2 124 111 33 42 72 103 100 87 135 169 214 127 75 58 52 99 90 111 64 133
243 233 223 221 218 219 215 228 255 346 289 267 234 173 292 312 319 292 280 298 219 22 324 11 123 95 116 25 31 64 93 82 68 17 110 101 108 89 76 83 149 118 169 133
254 233 226 216 214 215 222 248 358 341 296 282 229 179 218 230 259 255 312 320 312 302 210 187 230 137 133 161 9 60 23 164 63 56 98 95 92 97 90 96 99 91 119 89
258 232 223 214 208 211 214 224 285 284 278 297 286 239 222 231 205 297 238 283 317 321 283 228 204 167 153 147 127 94 79 105 78 131 121 86 44 357 97 103 100 135 153 162
254 231 219 218 209 212 205 213 311 311 282 324 328 342 324 293 280 234 288 312 27 333 42 102 102 90 90 89 61 96 103 90 106 154 28 76 245 116 117 101 98 110 104 144
244 239 220 207 212 210 213 215 19 13 296 318 319 347 332 319 284 224 278 308 336 319 311 62 64 359 37 14 49 79 92 107 84 119 69 90 102 173 145 127 146 155 130 136
231 240 233 215 208 212 215 226 232 308 310 213 346 320 353 321 335 351 283 304 309 316 78 79 123 177 164 171 36 70 69 87 108 110 131 194 232 166 133 102 182 166 145 155
222 233 237 231 214 200 214 227 226 237 270 276 359 29 313 343 339 275 334 342 331 326 66 69 138 177 153 152 160 182 61 37 132 98 105 343 210 153 138 105 234 161 153 169
217 223 233 236 223 216 214 223 200 212 271 279 275 294 311 325 352 353 335 16 331 6 90 105 259 125 203 94 174 169 146 131 114 82 98 221 81 62 161 150 139 145 143 146
214 213 225 240 225 217 224 225 207 222 259 264 279 281 268 286 290 285 304 287 290 331 78 13 114 96 81 143 161 36 81 177 152 170 199 304 302 144 137 145 143 148 146 145
211 210 215 228 224 219 228 234 207 219 273 292 279 271 288 291 280 282 265 303 343 317 351 254 149 87 121 119 210 107 80 116 93 99 353 97 115 122 136 145 144 150 145 147
209 209 213 219 233 212 227 236 207 224 268 272 280 270 277 291 252 229 248 277 301 313 306 243 120 115 152 186 156 117 174 106 130 65 107 115 133 135 139 137 140 141 141 152
206 207 212 221 245 206 226 234 201 197 219 288 300 279 267 229 229 236 254 260 287 313 306 58 128 117 88 23 71 37 189 162 148 200 180 155 159 151 152 150 151 147 140 147
202 207 212 214 229 196 206 249 198 188 199 320 304 300 248 250 235 227 253 249 283 268 275 166 107 94 106 88 87 289 223 180 168 156 172 173 158 159 160 153 156 145 143 149
198 199 209 222 210 187 196 176 162 200 206 247 288 287 236 229 216 237 248 241 260 253 272 113 129 93 85 92 148 195 141 183 178 152 146 142 159 158 161 156 152 140 150 161
193 194 203 231 208 199 218 148 160 177 181 219 242 268 291 194 199 207 203 205 215 235 218 142 90 86 83 76 157 142 137 138 143 154 164 164 155 153 156 162 156 151 150 167
187 189 199 241 212 199 212 175 153 176 198 225 216 237 233 175 190 209 190 210 164 204 111 141 108 9 164 172 157 151 151 152 153 150 146 150 154 155 157 162 162 153 162 164
176 180 181 206 211 191 198 140 157 175 208 233 240 238 265 198 190 213 165 167 163 118 252 126 84 221 285 172 175 166 162 161 158 143 147 155 156 162 165 166 166 159 167 176
175 175 211 213 183 198 221 182 167 183 220 211 227 222 224 245 162 206 200 174 155 107 252 121 174 242 187 178 173 167 171 171 172 183 171 174 172 167 167 172 172 172 172 177
176 176 207 172 170 193 238 187 173 171 204 200 189 208 203 253 210 134 191 116 66 187 153 97 175 243 178 172 167 169 168 167 166 167 162 161 159 162 168 175 174 174 180 180
170 214 219 219 233 180 219 185 185 179 185 172 157 166 195 236 199 115 117 115 189 124 75 186 221 180 170 167 166 163 170 164 161 162 162 158 161 170 176 170 171 173 175 174
175 181 236 219 202 221 227 307 164 168 175 169 180 145 177 239 151 154 106 211 104 110 149 219 207 165 165 165 161 155 159 162 161 164 164 166 168 173 176 181 181 181 179 177
178 190 225 218 236 254 261 267 195 183 190 170 132 93 23 264 134 103 115 130 166 182 203 208 171 166 164 162 161 162 164 163 163 166 167 168 173 175 174 179 183 186 176 168
218 229 258 261 277 278 286 214 184 184 175 162 108 107 16 254 132 143 182 145 186 214 196 163 161 160 163 161 164 165 164 164 164 169 173 177 180 186 186 183 187 190 194 188
228 238 238 257 276 276 277 223 184 180 172 124 132 131 267 316 299 167 162 179 189 161 155 161 167 166 163 163 163 162 163 166 169 172 176 175 180 188 193 194 191 195 196 194
Wind_Speed_850mb
30 39 36 29 24 16 16 9 6 13 36 9 5 5 8 13 23 55 15 6 7 5 11 8 5 3 2 3 2 7 5 9 8 8 12 7 11 8 10 10 3 7 8 6
27 31 33 26 25 18 13 8 13 25 30 5 5 10 11 25 19 13 8 8 2 7 7 1 8 7 13 9 9 7 2 6 7 14 13 14 13 7 11 11 7 2 10 9
31 24 33 28 24 20 12 7 5 13 21 30 7 1 12 8 25 15 15 12 12 8 11 4 7 6 12 12 10 11 14 6 13 11 12 8 12 18 12 13 9 6 4 27
23 34 27 33 28 22 15 9 9 9 6 11 13 9 8 10 11 8 11 7 8 3 7 2 8 8 6 11 8 8 10 6 6 6 19 19 20 24 21 15 14 10 19 19
18 25 29 30 35 27 24 5 7 21 21 22 10 14 14 18 14 9 12 9 16 7 7 6 13 14 5 7 10 7 7 1 5 10 16 26 20 33 35 32 26 23 26 13
16 21 27 30 37 34 19 5 19 10 16 11 3 4 14 13 4 14 22 14 6 12 13 27 39 20 18 19 11 5 7 7 6 4 18 15 13 4 17 12 10 29 13 15
17 18 24 29 35 43 32 10 9 5 8 4 6 14 14 14 11 12 18 18 5 13 2 53 47 44 36 35 17 11 7 7 5 6 6 6 10 9 28 27 11 17 21 25
19 16 23 27 33 44 40 37 4 9 7 17 14 32 13 34 24 12 9 20 16 27 14 12 12 12 13 9 6 11 10 8 6 8 6 6 15 9 14 12 3 11 23 33
19 17 19 32 24 38 44 46 35 9 10 5 15 11 24 8 10 10 13 31 19 15 5 6 9 8 8 4 4 7 11 11 9 5 9 11 11 5 46 26 1 20 45 44
24 18 16 25 29 20 45 37 28 19 11 15 20 9 10 19 13 5 8 15 9 10 5 5 5 5 15 9 14 8 6 6 8 5 6 1 5 27 21 8 11 38 47 51
29 22 18 17 27 27 39 45 27 22 11 42 26 20 26 29 13 6 21 10 9 8 6 5 5 5 6 8 6 10 9 9 3 5 8 7 4 5 11 17 46 42 39 39
31 27 20 15 27 29 25 38 41 27 27 29 29 39 36 49 35 29 12 7 10 5 2 2 6 4 3 10 5 8 4 10 11 6 7 6 4 17 46 52 53 42 41 39
33 31 24 19 23 35 35 32 32 21 27 47 44 41 23 26 20 21 10 5 16 6 17 4 4 9 7 5 4 9 6 7 9 7 4 16 47 48 46 38 39 37 35 38
33 32 28 23 18 35 40 30 35 20 10 10 15 13 25 18 20 32 28 33 28 32 25 6 5 6 5 6 7 8 6 11 13 8 10 34 37 45 43 41 39 39 33 37
34 33 30 23 18 39 34 34 40 29 10 7 25 43 30 17 19 24 23 23 23 18 10 1 3 3 8 6 7 5 4 14 9 9 45 14 49 47 42 45 43 37 39 43
35 32 29 25 18 37 28 12 48 31 18 10 7 16 39 24 21 28 24 22 16 10 9 3 7 5 8 7 4 7 2 30 28 19 68 37 53 47 43 45 44 37 36 50
37 31 25 22 24 34 43 16 25 45 37 8 12 15 15 29 29 21 21 19 14 12 6 3 8 5 7 6 5 10 12 20 25 60 55 54 62 61 49 45 43 36 40 46
35 31 28 18 30 33 49 28 40 47 40 10 5 9 11 29 19 10 21 17 17 11 4 4 8 7 7 5 11 36 37 46 65 69 36 61 60 54 50 48 48 44 41 50
36 30 23 12 19 26 55 30 22 42 19 7 8 5 7 29 20 19 22 16 3 4 4 2 8 3 4 22 42 60 63 44 58 40 56 66 60 55 55 51 46 43 46 43
36 31 13 10 15 29 40 21 19 18 15 13 10 9 7 16 27 12 11 7 6 4 6 9 6 4 7 62 66 66 49 54 61 70 62 61 60 59 54 51 41 39 41 42
42 20 11 11 29 38 14 13 16 19 8 19 20 30 7 7 9 9 8 7 3 6 9 9 2 3 12 52 61 57 44 54 45 37 55 46 47 53 54 46 42 39 37 36
34 14 17 13 18 13 8 11 11 11 14 19 30 33 29 17 24 8 4 7 4 9 9 8 5 8 40 64 64 52 54 50 42 40 44 38 38 42 44 41 47 41 37 34
33 6 5 5 8 8 11 18 9 12 21 30 27 12 23 14 13 5 6 7 7 13 6 8 9 18 61 73 61 61 59 52 44 44 40 36 40 41 40 41 42 38 33 32
9 9 6 8 9 12 12 7 11 27 39 41 46 22 14 14 8 8 8 4 8 5 9 11 7 58 68 70 67 68 62 53 51 50 48 46 42 40 38 37 37 36 38 31
10 10 10 18 23 28 27 42 38 49 41 28 26 16 7 8 8 4 8 6 8 11 12 8 48 72 80 78 74 67 65 64 59 56 52 46 42 40 39 36 34 35 36 37
10 15 10 26 11 24 29 44 49 58 50 35 19 9 3 10 4 9 11 18 11 8 8 37 72 79 81 80 73 71 72 66 60 52 44 38 36 34 34 36 38 36 37 37
11 16 34 35 30 31 50 35 62 60 56 7 9 14 10 10 5 8 11 11 9 29 46 71 85 90 85 78 75 73 66 57 47 40 35 33 32 32 31 34 37 38 36 32
Wind_Direction_850mb
242 232 238 249 253 262 278 291 297 171 163 149 179 197 224 298 299 305 266 259 261 234 289 181 147 77 3 66 118 85 332 129 69 40 336 92 98 117 110 109 310 69 107 43
247 234 229 238 241 238 248 265 271 193 219 178 241 276 285 284 284 275 318 305 223 271 261 152 130 111 10 73 77 135 47 2 69 346 354 6 52 14 102 110 88 81 116 150
238 241 223 223 225 227 233 274 307 246 217 245 203 88 269 259 297 269 255 263 302 343 347 2 124 111 33 42 72 103 100 87 135 169 214 127 75 58 52 99 90 111 64 133
243 233 223 221 218 219 215 228 255 346 289 267 234 173 292 312 319 292 280 298 219 22 324 11 123 95 116 25 31 64 93 82 68 17 110 101 108 89 76 83 149 118 169 133
254 233 226 216 214 215 222 248 358 341 296 282 229 179 218 230 259 255 312 320 312 302 210 187 230 137 133 161 9 60 23 164 63 56 98 95 92 97 90 96 99 91 119 89
258 232 223 214 208 211 214 224 285 284 278 297 286 239 222 231 205 297 238 283 317 321 283 228 204 167 153 147 127 94 79 105 78 131 121 86 44 357 97 103 100 135 153 162
254 231 219 218 209 212 205 213 311 311 282 324 328 342 324 293 280 234 288 312 27 333 42 102 102 90 90 89 61 96 103 90 106 154 28 76 245 116 117 101 98 110 104 144
244 239 220 207 212 210 213 215 19 13 296 318 319 347 332 319 284 224 278 308 336 319 311 62 64 359 37 14 49 79 92 107 84 119 69 90 102 173 145 127 146 155 130 136
231 240 233 215 208 212 215 226 232 308 310 213 346 320 353 321 335 351 283 304 309 316 78 79 123 177 164 171 36 70 69 87 108 110 131 194 232 166 133 102 182 166 145 155
222 233 237 231 214 200 214 227 226 237 270 276 359 29 313 343 339 275 334 342 331 326 66 69 138 177 153 152 160 182 61 37 132 98 105 343 210 153 138 105 234 161 153 169
217 223 233 236 223 216 214 223 200 212 271 279 275 294 311 325 352 353 335 16 331 6 90 105 259 125 203 94 174 169 146 131 114 82 98 221 81 62 161 150 139 145 143 146
214 213 225 240 225 217 224 225 207 222 259 264 279 281 268 286 290 285 304 287 290 331 78 13 114 96 81 143 161 36 81 177 152 170 199 304 302 144 137 145 143 148 146 145
211 210 215 228 224 219 228 234 207 219 273 292 279 271 288 291 280 282 265 303 343 317 351 254 149 87 121 119 210 107 80 116 93 99 353 97 115 122 136 145 144 150 145 147
209 209 213 219 233 212 227 236 207 224 268 272 280 270 277 291 252 229 248 277 301 313 306 243 120 115 152 186 156 117 174 106 130 65 107 115 133 135 139 137 140 141 141 152
206 207 212 221 245 206 226 234 201 197 219 288 300 279 267 229 229 236 254 260 287 313 306 58 128 117 88 23 71 37 189 162 148 200 180 155 159 151 152 150 151 147 140 147
202 207 212 214 229 196 206 249 198 188 199 320 304 300 248 250 235 227 253 249 283 268 275 166 107 94 106 88 87 289 223 180 168 156 172 173 158 159 160 153 156 145 143 149
198 199 209 222 210 187 196 176 162 200 206 247 288 287 236 229 216 237 248 241 260 253 272 113 129 93 85 92 148 195 141 183 178 152 146 142 159 158 161 156 152 140 150 161
193 194 203 231 208 199 218 148 160 177 181 219 242 268 291 194 199 207 203 205 215 235 218 142 90 86 83 76 157 142 137 138 143 154 164 164 155 153 156 162 156 151 150 167
187 189 199 241 212 199 212 175 153 176 198 225 216 237 233 175 190 209 190 210 164 204 111 141 108 9 164 172 157 151 151 152 153 150 146 150 154 155 157 162 162 153 162 164
176 180 181 206 211 191 198 140 157 175 208 233 240 238 265 198 190 213 165 167 163 118 252 126 84 221 285 172 175 166 162 161 158 143 147 155 156 162 165 166 166 159 167 176
175 175 211 213 183 198 221 182 167 183 220 211 227 222 224 245 162 206 200 174 155 107 252 121 174 242 187 178 173 167 171 171 172 183 171 174 172 167 167 172 172 172 172 177
176 176 207 172 170 193 238 187 173 171 204 200 189 208 203 253 210 134 191 116 66 187 153 97 175 243 178 172 167 169 168 167 166 167 162 161 159 162 168 175 174 174 180 180
170 214 219 219 233 180 219 185 185 179 185 172 157 166 195 236 199 115 117 115 189 124 75 186 221 180 170 167 166 163 170 164 161 162 162 158 161 170 176 170 171 173 175 174
175 181 236 219 202 221 227 307 164 168 175 169 180 145 177 239 151 154 106 211 104 110 149 219 207 165 165 165 161 155 159 162 161 164 164 166 168 173 176 181 181 181 179 177
178 190 225 218 236 254 261 267 195 183 190 170 132 93 23 264 134 103 115 130 166 182 203 208 171 166 164 162 161 162 164 163 163 166 167 168 173 175 174 179 183 186 176 168
218 229 258 261 277 278 286 214 184 184 175 162 108 107 16 254 132 143 182 145 186 214 196 163 161 160 163 161 164 165 164 164 164 169 173 177 180 186 186 183 187 190 194 188
228 238 238 257 276 276 277 223 184 180 172 124 132 131 267 316 299 167 162 179 189 161 155 161 167 166 163 163 163 162 163 166 169 172 176 175 180 188 193 194 191 195 196 194